Погода в Вильнюсе

Погода в Вильнюсе : погода сейчас, прогноз погоды и архив. Всё, что Вы хотите узнать о погоде в Вильнюсе!

Поиск расширенной информации на нашем сайте:

Другие новости

Новости СМИ2

Главная страница сайта

Новости сайта

03.07.2017

Напоминаем, что на нашем специализированном сайте Метеоцентр.Азия вы можете получить высокодетализированные автоматические прогнозы погоды по пунктам России, СНГ и мира в авиационном формате (включающие направление и скорость ветра, видимость, явления погоды, количество и форму облачности, нижнюю и верхнюю границу облачности).


Погода в Вильнюсе - сегодня

Время (UTC), дата Ветер
(°,м/с) 
Видим.   Явления Облачность Т
(°С)
Тd
(°С)
f(%) Тe
(°С)
Pmin
(гПа)
dP
(гПа)
Po
(мм)
O2
(г/м3)
Тmin Tmax R s Состояние
почвы
21 19.11.17 180 (Ю) 4-7{07}  11000 м  {дождь, морось}  9/9 240 м 
[St]
+2.2 +1.2 93 1002.6  0.4  738  295           
00 20.11.17 190 (Ю) 4-7{08}  14000 м  слаб. дождь{морось}  10/10 210 м 
[Ns]
+2.1 +1.1 93 1002.4  -0.2  737  295      0.0     
03 20.11.17 170 (Ю) 3-5{07}  11000 м  {дождь, морось}  9/9 210 м 
[St]
+2 +0.9 92 +1  1002.9  0.5  738  295           
06 20.11.17 170 (Ю) 3-5{06}  11000 м  {дождь, морось}  9/9 210 м 
[St]
+1.7 +0.6 92 1003.8  0.8  738  296  +1.7    0.2    влажная 
09 20.11.17 180 (Ю) 3-5{06}  8000 м  дымка  10/10 240 м 
[St]
+2.2 +0.9 91 +1  1004.8  1.1  739  295           
12 20.11.17 210 (ЮЗ) 3-4{07}  20000 м  в посл. час дождь  9/9 1170 м 
[Sc]
+2.3 +1 91 +1  1005.3  0.5  740  295      0.7     
15 20.11.17 170 (Ю) 2-4{04}  20000 м  {дождь}  9/9 1440 м 
[Sc]
+1.9 +0.6 91 +1  1006.2  0.8  740  296           
18 20.11.17 150 (ЮВ) 2-3{04}  12000 м  {дождь}  9/9 2000 м 
[Sc]
+0.3 -0.8 92 1006.6  0.3  740  298    +2.6  0.7     
21 20.11.17 130 (ЮВ) 1-2{04}  8000 м  дымка  10/10 270 м 
[St]
+0.2 -0.7 94 +1  1007.1  0.5  741  298           
00 21.11.17 тихо () -1{03}  7000 м  дымка  10/10 240 м 
[St]
+0.5 -0.3 94 +1  1007.9  0.8  741  298           
03 21.11.17 тихо () -0{02}  3700 м  дымка{туман}  10/10 120 м 
[St]
+0.7 +0.1 96 +1  1008.5  0.6  742  298           
06 21.11.17 320 (СЗ) 2-4{05}  0400 м  туман  ?/?  
-0.2 -0.8 96 -1  1010.1  1.5  743  300  -0.2        влажная 
09 21.11.17 330 (СЗ) 1-3{04}  11000 м  {туман}  9/9 180 м 
[St]
+0.2 -0.4 96 +1  1011  0.9  744  299           
12 21.11.17 250 (З) 3-4{04}  20000 м  {туман}  9/9 600 м 
[Sc]
+2.2 -0.6 82 +1  1010.9  744  297           
15 21.11.17 230 (ЮЗ) 1-3{06}  20000 м  {дождь}  9/9 1230 м 
[Sc]
+1.2 +0.1 92 +2  1011.3  0.4  744  298           
18 21.11.17 220 (ЮЗ) 2-3{04}  9000 м  слаб. дождь со снегом  9/8 120 м средняя 
[Frnb|As op]
+0.2 -0.7 94 -1  1011.7  0.3  744  300    +2.2  0.6     
21 21.11.17 340 (С) 1-3{03}  11000 м  {снег, дождь}  9/9 750 м 
[Sc]
+0 -0.8 94 +1  1012.1  0.4  744  300           
00 22.11.17 300 (СЗ) 3-5{05}  20000 м  {снег, дождь}  9/9 450 м 
[St]
+0 -1.2 92 -2  1012.9  0.8  745  300      0.0     
03 22.11.17 тихо () -0{05}  20000 м    10/10 400 м 
[St]
-0.2 -1.7 90 -0  1013.8  0.8  746  301           
06 22.11.17 220 (ЮЗ) 1-3{03}  20000 м    10/10 420 м 
[St]
-0.3 -2.1 88 1014.7  0.9  746  301  -0.3    0.0    влажная 
09 22.11.17 210 (ЮЗ) 2-3{05}  20000 м    10/10 360 м 
[St]
-0.2 -2.6 84 -1  1016  1.3  747  302           
12 22.11.17 190 (Ю) 3-4{05}  20000 м  {снег, дождь}  10/10 360 м 
[St]
-0.5 -2.9 84 -2  1016.4  0.3  748  302      0.0     
15 22.11.17 160 (Ю) 3-4{05}  20000 м    10/10 420 м 
[St]
-1 -3.6 82 -3  1017.1  0.7  748  303           
18 22.11.17 170 (Ю) 3-5{06}  20000 м    10/10 420 м 
[St]
-1.1 -3.4 84 -3  1017.9  0.8  749  303    -0.1  0.0     
21 22.11.17 240 (ЮЗ) 1-3{03}  11000 м  {снег, дождь}  9/9 750 м 
[Sc]
+0 -0.8 94 +1  1012.1  0.4  744  300           
Время (UTC), дата Ветер
(°,м/с) 
Видим.   Явления Облачность Т
(°С)
Тd
(°С)
f(%) Тe
(°С)
Pmin
(гПа)
dP
(гПа)
Po
(мм)
O2
(г/м3)
Тmin Tmax R s Состояние
почвы

Для получения пояснительной информации подведите курсор к названию столбца.

ПОГОДА в Вильнюсе - архив

Всё, что Вы хотите узнать о погоде в Вильнюсе - удобно и подробно!

Выберите нужную дату (начиная с 1 января 2015* года) и нажмите кнопку "Найти".
Будут отображены архивные сводки погоды по пункту Вильнюс, начиная с указанной даты.


Отображать данные в формате CSV (для использования в таблицах Excel)


Внимание! Наш архив погоды предназначен исключительно для личного некоммерческого использования в познавательных целях. Если Вам необходимы официальные справки о состоянии погоды (для производственных, юридических, коммерческих и т.п. целей), обращайтесь в органы Росгидромета.

*Примечание: данная дата относится к архиву по метеостанциям СССР (Россия, СНГ, Балтия).
Архив по метеостанциям Зарубежной Европы и Азии (кроме Китая) хранится 10 дней, по другим регионам земного шара (Китай, Африка, Америка, Австралия, Океания) - 1 день.

Вильнюс - район местоположения метеостанции


Название, широта, долгота, высота метеостанции:
Вильнюс 54.6°ш. 25.1°д. 156 м над ур. моря [Литва]

Дополнительная информация

В oтличие oт бoльшинства пoгoдных сайтoв мы публикуем пoдрoбную метеoинфoрмацию в детальнoм прoфессиoнальнoм фoрмате.

Характеристики температуры и влажнoсти вoздуха измеряются на высoте 2 м в тени вдали oт зданий и деревьев.
Скoрoсть ветра измеряется на высoте 10 м (на урoвне рoста челoвека скoрoсть ветра ниже в 1.5-2 раза). Если метеoстанция нахoдится в гoрoде или в лесу, тo скoрoсть ветра занижена на 2-4 м/с пo сравнению с oткрытым местoм. Скoрoсть ветра над акватoриями крупных рек и oзёр, а также на вершинах хoлмoв на 2-5 м/с выше, чем в oбычных услoвиях.
Атмoсфернoе давление в разных тoчках местнoсти мoжет значительнo oтличаться oт давления на метеoстанции, в зависимoсти oт услoвий рельефа (при пoдъёме на 10 м давление пoнижается примернo на 1 мм рт.ст.).